STARLINK-34836, 65399

Orbit data source: Space-Track

STARLINK-34836, 65399 is a payload satellite owned by SpaceX/Seattle (US) in SSO that was launched on Sat, 30 Aug 2025 UTC via an FALCON 9 launch vehicle from the Air Force Western Test Range (AFWTR). Payload-class satellites include a variety of spacecraft equipped with specific instruments for various scientific and technological missions. These include communications satellites like Starlink; space stations such as the ISS; scientific satellites like the Hubble; Earth observation satellites from companies like Planet Labs, Umbra, and HawkEye 360; GPS; miniature CubeSats for education and research; and military/defense satellites.

Loading next visibility...
Identifier
65399, 2025-191W
Orbit
SSO
Country
Flag of USUS
Related business
Manufacturer
SpaceX/Seattle
Mission
Operational Commercial Communications
Bus & Motor
STARLINK V2MO, Unknown motor
Mass
575 kg wet, ~530 kg dry
Launch date (UTC)
2025-08-30 (7 months ago)
Launch vehicle
FALCON 9
Launch site
Air Force Western Test Range (AFWTR)
Object type
Payload
Rocket body
Debris
Shape & HBR
Box + 2 Pan, 17.7 m
Radar Cross Section
36.964 m², Large (>1 m²)

Expand to show TLE details & history
Last TLE update: 16 hours ago

TLE from 16 hours ago
0 STARLINK-34836
1 65399U 25191W   26093.63922750  .00003649  00000-0  25690-3 0  9991
2 65399  97.6039 326.1171 0002079  67.1156 293.0290 15.05655998 34020
Epoch: 2026-04-03T15:20Z
TLE epoch observation values (Epoch: 2026-04-03T15:20:29.256Z)
Latitude
-0°
Longitude
-95.97527°
Altitude
551.995 km
Speed
7.586 km/s
True Right ascension
21h 44m 28s
True Declination
0° 00' 00"
Sunlit
Object was in daylight at epoch
Visualization orbit readout
Latitude
Unknown
Longitude
Unknown
Altitude
Unknown
Speed
Unknown
Apparent Right ascension
Unknown
Apparent Declination
Unknown
Sunlit
N/A
Visualization observer readout
Local Sidereal Time
13:10:10
Azimuth
Unknown
Elevation
Unknown
Doppler factor
Unknown
Orbital elements
Apogee altitude
547.926 km
Perigee altitude
545.047 km
Semi-major axis
6,924.623 km
Eccentricity
0.00021
Inclination
97.6039°
RAAN
326.1171°
Arg. of periapsis
67.1156°
True anomaly
293.00707°
Mean anomaly
293.029°
Eccentric anomaly
293.01804°
Mean motion
3.7666 °/min
Orbital period
95.58 mins
BSTAR
0.0002569
Loading maneuver chart data...
Computing Atmospheric mass density...
Loading historical data...
Loading historical data...
Loading historical data...
Loading historical data...
Loading historical data...
Loading historical data...
Loading historical data...

Documentation

Showing up to 5 results
|